Flag for U.S.A. Weather past 2 weeks in Glennallen, Alaska, U.S.A.

Now
51 °F

Mostly cloudy.


Feels Like: 48 °F
Forecast: 33 / 54 °F
Wind: 9 mph from South

Location: Gulkana Airport

Current Time: Sep 20, 2014 at 8:33:08 PM

Latest Report: Sep 20, 2014 at 7:53 PM


Visibility: 10 mi

Pressure: 29.64 "Hg

Humidity: 54%

Dew point: 35 °F

Location of GlennallenLocation

Historic Weather in Glennallen — Graph

°F

Glennallen temperature yesterday

Maximum temperature yesterday: 58 °F (at 1:53 PM)
Minimum temperature yesterday: 39 °F (at 1:53 AM)
Average temperature yesterday: 47 °F

Past Weeks' High & Low Weather Summary

 TemperatureHumidityPressure
High69 °F (Sep 13, 1:53 PM)100% (Sep 11, 4:53 AM)30.24 "Hg (Sep 11, 4:53 AM)
Low28 °F (Sep 8, 6:53 AM)42% (Sep 14, 2:53 PM)29.03 "Hg (Sep 18, 4:53 PM)
Average50 °F73%29.81 "Hg
* Reported Sep 5 6:53 PM — Sep 20 6:53 PM, Glennallen, Weather by CustomWeather, © 2014

Note: Actual official high and low records may vary slightly from our data, if they occured in-between our weather recording intervals... More about our weather records

Advertising

Glennallen weather history for previous 24 hours

 ConditionsComfort  
Time TempWeatherWind HumidityBarometerVisibility
6:53 PM
Sep 20
53 °FBroken clouds.7 mph51%29.61 "Hg10 mi
5:53 PM55 °FScattered clouds.12 mph45%29.59 "Hg10 mi
4:53 PM54 °FSunny.6 mph51%29.59 "Hg10 mi
3:53 PM55 °FSunny.5 mph47%29.59 "Hg10 mi
2:53 PM57 °FSunny.9 mph46%29.59 "Hg10 mi
1:53 PM56 °FSunny.8 mph49%29.59 "Hg10 mi
12:53 PM55 °FSunny.12 mph51%29.59 "Hg10 mi
11:53 AM53 °FSunny.13 mph56%29.60 "Hg10 mi
10:53 AM51 °FSunny.7 mph63%29.60 "Hg10 mi
9:53 AM44 °FSunny.7 mph76%29.62 "Hg10 mi
4:53 AM45 °FClear.12 mph74%29.61 "Hg10 mi
3:53 AM47 °FClear.16 mph69%29.59 "Hg10 mi
2:53 AM47 °FClear.17 mph69%29.59 "Hg10 mi
1:53 AM47 °FClear.15 mph69%29.58 "Hg10 mi
12:53 AM48 °FClear.20 mph66%29.58 "Hg10 mi
11:53 PM
Sep 19
48 °FClear.17 mph63%29.58 "Hg10 mi
10:53 PM50 °FClear.20 mph59%29.57 "Hg10 mi
9:53 PM50 °FClear.22 mph61%29.54 "Hg10 mi
8:53 PM51 °FClear.20 mph63%29.51 "Hg10 mi
Weather by CustomWeather, © 2014

See weather overviewHow to use our weather pages